Regional Weather Roundup
Issued by NWS

Home | Current Version | Previous Version | Graphics & Text | Print | Product List | Glossary Off
Versions: 1 2 3 4 5 6 7 8 9 10 11 12 13 14 15 16 17 18 19 20 21 22 23 24 25 26 27 28 29 30 31 32 33 34 35 36 37 38 39 40 41 42 43 44 45 46 47 48 49 50

000
ASUS43 KTOP 241008
RWRKS

WEATHER ROUNDUP FOR KANSAS
NATIONAL WEATHER SERVICE GOODLAND KS
500 AM CDT SUN MAY 24 2015

NOTE:  "FAIR" INDICATES FEW OR NO CLOUDS BELOW 12,000 FEET WITH NO
SIGNIFICANT WEATHER AND/OR OBSTRUCTIONS TO VISIBILITY.

KSZ001>006-013>018-027>032-041>047-241100-
NORTHWEST KANSAS

CITY           SKY/WX    TMP DP  RH WIND       PRES   REMARKS
GOODLAND       CLOUDY    52  51  97 S7        29.89F
HAYS           CLOUDY    57  50  77 CALM      29.88S VSB 1/2
HILL CITY      CLOUDY    58  56  93 CALM      29.90R
RUSSELL        CLOUDY    56  55  97 N3        29.88S FOG
$$

KSZ061>065-074>080-084>089-241100-
SOUTHWEST KANSAS

CITY           SKY/WX    TMP DP  RH WIND       PRES   REMARKS
DODGE CITY     FOG       57  55  93 CALM      29.90R VSB 3/4
ELKHART          N/A     57  53  86 S13         N/A
GARDEN CITY    FOG       55  55 100 SE9       29.88S VSB 3/4
GREAT BEND     CLOUDY    57  54  88 CALM      29.87R
LIBERAL        CLOUDY    59  54  82 SW8       29.92R
PRATT          CLOUDY    55  55 100 CALM      29.89R FOG
$$

KSZ066>073-081>083-090>101-241100-
SOUTHEAST KANSAS

CITY           SKY/WX    TMP DP  RH WIND       PRES   REMARKS
CHANUTE        CLOUDY    63  62  97 S7        29.88R
COFFEYVILLE    CLOUDY    63  63 100 S9        29.86S
HUTCHINSON     CLOUDY    58  55  90 NE7       29.86S
MEDICINE LODGE   N/A     59  58  96 E6        29.87R
NEWTON         CLOUDY    57  54  88 E5        29.89F
PARSONS        CLOUDY    64  64 100 S6        29.88F
WICHITA INTL   CLOUDY    60  58  92 E9        29.85F
WICHITA JABRA  CLOUDY    59  58  96 E6        29.87S
WICHITA MCCONL CLOUDY    60  59  97 NE8       29.86F
WINFIELD       CLOUDY    61  60  97 N3        29.86R
$$

KSZ007>012-019>026-033>040-048>060-102>105-241100-
NORTHEAST KANSAS

CITY           SKY/WX    TMP DP  RH WIND       PRES   REMARKS
CONCORDIA      FOG       60  59  96 CALM      29.87S VSB 1/2
EMPORIA        CLOUDY    61  60  97 S3        29.88S
LAWRENCE       LGT RAIN  63  62  97 SE3       29.87F FOG
MANHATTAN      CLOUDY    63  62  97 CALM      29.86R
MARYSVILLE     CLOUDY    61  61 100 E5        29.85S
OLATHE IND     CLOUDY    63  62  97 S10       29.87F
OLATHE EXE     CLOUDY    64  63  96 S15G23    29.86F
SALINA         CLOUDY    60  58  92 CALM      29.87F
TOPEKA BILLARD CLOUDY    65  63  93 S7        29.86F
TOPEKA FORBES  CLOUDY    65  62  90 S6        29.86S
$$


USA.gov is the U.S. government's official web portal to all federal, state and local government web resources and services.